Weather observations for the past three days for
Huron, Huron Regional Airport
Imperial (Metric)
Date Time (cdt) Wind (mph) Vis. (mi.) Weather Sky Cond. Temperature (ºF) Relative Humidity Wind Chill (°F) Heat Index (°F) Pressure Precipitation (in)
Air Dwpt 6 hour altimeter (in) sea level (mb) 1 hr 3 hr 6 hr
Max. Min.
25 02:55 NW 6 10.00 Fair CLR 75.9 68 77% 77 29.76 1006.6
25 01:55 NW 8 10.00 Fair CLR 77 72 85% 78 29.77 1006.9
25 00:55 W 14 10.00 Fair CLR 75.9 72 90 75 88% 76 29.76 1006.7
24 23:55 W 7 10.00 Fair CLR 75 72 90% 74 29.7 1004.7
24 22:55 NW 6 10.00 Fair CLR 77 72 85% 78 29.69 1004.0
24 21:55 N 5 10.00 Fair CLR 78.1 73 85% 81 29.65 1003.0
24 20:55 NW 3 10.00 Rain CLR 82 73 74% 87 29.64 1002.3
24 19:55 NW 13 10.00 Fair CLR 88 73 61% 96 29.62 1002.0
24 17:55 NW 16 G 24 10.00 Fair CLR 91 73 56% 100 29.6 1001.1
24 16:55 NW 15 10.00 Fair CLR 93 73 52% 102 29.59 1000.8
24 15:55 W 13 10.00 Fair CLR 91.9 72 52% 100 29.59 1000.8
24 14:55 W 14 G 21 10.00 Fair CLR 91.9 71.1 51% 99 29.59 1000.6
24 13:55 S 13 10.00 Fair CLR 91 70 50% 97 29.59 1000.8
24 12:55 S 10 10.00 Fair CLR 88 71.1 88 72 57% 94 29.59 1000.9
24 11:55 S 9 10.00 Fair CLR 84.9 71.1 63% 90 29.61 1001.6
24 10:55 S 15 G 24 10.00 Fair CLR 82.9 69.1 63% 87 29.6 1001.3
24 09:55 SE 18 G 24 10.00 Fair CLR 80.1 69.1 69% 83 29.62 1001.8
24 08:55 SE 14 G 25 10.00 Fair CLR 77 69.1 77% 79 29.62 1002.1
24 07:55 SE 18 G 26 10.00 Fair CLR 75 68 79% 76 29.65 1002.8
24 06:55 SE 13 G 22 10.00 Fair CLR 72 68 75 72 87% 29.67 1003.7
24 05:55 SE 10 10.00 Fair CLR 72 66.9 84% 29.69 1004.4
24 04:55 SE 12 10.00 Fair CLR 73 66.9 81% 29.7 1004.5
24 03:55 SE 14 G 22 10.00 Fair CLR 73.9 66.9 79% 29.71 1005.0
24 02:55 SE 15 10.00 Fair CLR 73.9 66.9 79% 29.73 1005.8
24 01:55 SE 12 10.00 Fair CLR 73.9 66.9 79% 29.77 1006.9
24 00:55 SE 12 10.00 Fair CLR 75 66.9 84 75 76% 76 29.79 1007.6
23 23:55 SE 9 10.00 Fair CLR 75 66.9 76% 76 29.81 1008.3
23 22:55 SE 9 10.00 Fair CLR 77 66.9 71% 79 29.82 1008.6
23 21:55 E 7 10.00 Fair CLR 75.9 68 77% 77 29.81 1008.6
23 20:55 E 7 10.00 Fair CLR 80.1 69.1 69% 83 29.81 1008.6
23 19:55 SE 9 10.00 Fair CLR 82.9 68 61% 86 29.82 1008.8
23 18:55 SE 12 10.00 A Few Clouds FEW043 82.9 66.9 84.9 80.1 59% 86 29.83 1009.2
23 17:55 E 13 10.00 Partly Cloudy SCT044 84 66.9 57% 87 29.84 1009.5
23 16:55 SE 8 10.00 Fair CLR 84.9 66 53% 87 29.84 1009.8
23 15:55 SE 12 10.00 A Few Clouds FEW040 84 66 55% 86 29.85 1010.1
23 14:55 SE 13 10.00 Fair CLR 82.9 66.9 59% 86 29.86 1010.5
23 13:55 Vrbl 5 10.00 Fair CLR 81 64.9 58% 83 29.88 1011.0
23 12:55 E 7 10.00 Fair CLR 80.1 66 81 66 62% 82 29.89 1011.5
23 11:55 S 8 10.00 A Few Clouds FEW070 80.1 64.9 60% 82 29.9 1011.8
23 10:55 SE 7 10.00 Fair CLR 78.1 64.9 64% 80 29.91 1012.1
23 09:55 SE 6 10.00 Fair CLR 75 64.9 71% 77 29.92 1012.3
23 08:55 E 3 10.00 Fair CLR 73 66 79% 29.93 1012.6
23 07:55 NE 3 10.00 Fair CLR 70 64 82% 29.92 1012.3
23 06:55 Calm 10.00 Partly Cloudy SCT080 66 64 68 62.1 93% 29.92 1012.4
23 05:55 NE 3 10.00 Fair CLR 63 61 93% 29.9 1011.8
23 04:55 W 3 10.00 Fair CLR 64 62.1 93% 29.9 1011.7
23 03:55 W 5 10.00 Fair CLR 64 62.1 93% 29.9 1011.7
23 02:55 Calm 10.00 Fair CLR 64.9 63 93% 29.9 1012.0
23 01:55 SW 5 10.00 Fair CLR 64.9 63 93% 29.91 1012.2
23 00:55 W 3 10.00 Fair CLR 66.9 64.9 80.1 66.9 93% 29.91 1012.2
22 23:55 W 3 10.00 Fair CLR 69.1 66 90% 29.91 1012.2
22 22:55 W 5 10.00 Fair CLR 69.1 66 90% 29.9 1012.1
22 21:55 W 5 10.00 Fair CLR 73.9 66 76% 29.88 1011.2
22 20:55 SW 3 10.00 Fair CLR 75.9 64.9 69% 78 29.87 1010.8
22 19:55 W 7 10.00 Fair CLR 79 64 60% 81 29.87 1010.7
22 18:55 W 6 10.00 A Few Clouds FEW046 80.1 64 80.1 73.9 58% 82 29.87 1010.5
22 17:55 N 5 10.00 A Few Clouds FEW038 80.1 64 58% 82 29.87 1010.7
22 16:55 NW 13 10.00 Partly Cloudy SCT036 79 64 60% 81 29.88 1011.1
22 15:55 N 13 10.00 Partly Cloudy SCT032 79 64.9 62% 81 29.89 1011.3
22 14:55 N 14 10.00 Partly Cloudy FEW026 SCT037 75.9 64.9 69% 78 29.88 1011.2
22 13:55 N 12 10.00 Mostly Cloudy SCT022 BKN028 75.9 64.9 69% 78 29.88 1010.9
22 12:55 N 13 G 22 10.00 Mostly Cloudy FEW015 SCT021 BKN028 73.9 66 75 66 76% 29.85 1010.2 0.9
22 11:55 N 10 10.00 Mostly Cloudy SCT013 SCT034 BKN110 71.1 66.9 87% 29.82 1009.3 0.01
22 10:55 N 13 10.00 Overcast OVC007 68 66 93% 29.89 1011.6 0.05
22 09:55 NW 12 4.00 Rain Fog/Mist SCT005 OVC017 66.9 64.9 93% 29.88 1011.2 0.17 0.84
22 08:55 N 8 0.50 Thunderstorm in Vicinity Heavy Rain Fog SCT004 OVC018 66 64.9 96% 29.85 1010.4 0.67
22 07:55 NE 5 10.00 Overcast OVC004 66.9 64.9 93% 29.84 1010.0
22 06:55 NE 5 10.00 Overcast OVC006 66.9 64.9 66.9 66 93% 29.84 1009.9
22 05:55 NE 3 10.00 Overcast OVC014 66.9 64.9 93% 29.86 1010.4
22 04:55 E 5 9.00 Overcast FEW006 OVC014 66 64.9 96% 29.85 1010.3
22 03:55 Calm 10.00 Overcast OVC008 66.9 64.9 93% 29.87 1010.8
Date Time (cdt) Wind (mph) Vis. (mi.) Weather Sky Cond. Air Dwpt Max. Min. Relative Humidity Wind Chill (°F) Heat Index (°F) altimeter (in) sea level (mb) 1 hr 3 hr 6 hr
6 hour
Temperature (ºF) Pressure Precipitation (in)